Regional Weather Roundup
Issued by NWS

Home | Current Version | Previous Version | Graphics & Text | Print | Product List | Glossary On
Versions: 1 2 3 4 5 6 7 8 9 10 11 12 13 14 15 16 17 18 19 20 21 22 23 24 25 26 27 28 29 30 31 32 33 34 35 36 37 38 39 40 41 42 43 44 45 46 47 48 49 50
000
ASUS43 KMKX 260600
RWRWI

WISCONSIN REGIONAL WEATHER ROUNDUP
NATIONAL WEATHER SERVICE MILWAUKEE/SULLIVAN WI
100 AM CDT WED JUL 26 2017

NOTE: "FAIR" INDICATES FEW OR NO CLOUDS BELOW 12,000 FEET WITH NO
SIGNIFICANT WEATHER AND/OR OBSTRUCTIONS TO VISIBILITY.

WIZ001-002-006>008-014>016-023>028-260700-
NORTHWEST WISCONSIN

CITY           SKY/WX    TMP DP  RH WIND       PRES   REMARKS
SUPERIOR ARPT  NOT AVBL
ASHLAND        TSTM      70  67  90 S10       29.95S FOG
6HR MIN TEMP:  70; 6HR MAX TEMP:  73; 6HR PCP:  0.13;

HAYWARD        LGT RAIN  70  67  90 SW3       29.99F
6HR MIN TEMP:  70; 6HR MAX TEMP:  73; 6HR PCP:  0.04;

SIREN          LGT RAIN  71  69  95 CALM      30.00S
CUMBERLAND     LGT RAIN  68  64  88 CALM      30.02S
RICE LAKE      LGT RAIN  70  67  91 CALM      30.03S
CHETEK         LGT RAIN  71  68  91 CALM      30.02S
LADYSMITH      LGT RAIN  72  66  83 S6        30.04R
EAU CLAIRE     NOT AVBL
MENOMONIE      CLOUDY    73  69  89 CALM      30.00R
NEW RICHMOND   CLOUDY    74  71  89 CALM      30.01F
OSCEOLA        CLOUDY    74  74 100 CALM      30.02F
$$

WIZ003>005-009-010-017-018-260700-
NORTH CENTRAL WISCONSIN

CITY           SKY/WX    TMP DP  RH WIND       PRES   REMARKS
MANITOWISH WTR CLOUDY    68  67  98 SW5       30.02R
ARBOR VITAE    CLOUDY    71  66  85 SW9       30.02R
WOODRUFF       CLOUDY    71  66  85 SW9       30.02R
RHINELANDER    CLOUDY    69  65  86 SW9G18    30.05R
6HR MIN TEMP:  67; 6HR MAX TEMP:  70;

EAGLE RIVER    CLOUDY    67  60  78 S6        30.02S
LAND O LAKES   CLOUDY    68  61  79 S5        30.03S
PHILLIPS       CLOUDY    70  67  90 S12G17    30.01S
6HR MIN TEMP:  68; 6HR MAX TEMP:  70;

TOMAHAWK         N/A     66  63  88 CALM      30.05R
MEDFORD        CLOUDY    69  65  86 S8        30.05R
MERRILL        NOT AVBL
$$

WIZ029-030-035-036-043>047-260700-
CENTRAL WISCONSIN

CITY           SKY/WX    TMP DP  RH WIND       PRES   REMARKS
WAUSAU         CLOUDY    70  64  81 S9        30.05R
6HR MIN TEMP:  69; 6HR MAX TEMP:  73;

MOSINEE        CLOUDY    68  64  88 S10       30.07R
MARSHFIELD     LGT RAIN  68  64  87 S9        30.06R
6HR MIN TEMP:  68; 6HR MAX TEMP:  74; 6HR PCP: TRACE;

STEVENS POINT  CLOUDY    68  64  89 S5        30.07R
WAUPACA        CLOUDY    69  63  80 S6        30.07R
WAUTOMA        MOCLDY    67  63  87 SE6       30.08R
6HR MIN TEMP:  66; 6HR MAX TEMP:  76;

WISC RAPIDS    CLOUDY    70  65  84 S6        30.08R
6HR MIN TEMP:  70; 6HR MAX TEMP:  77;

CAMP DOUGLAS   CLOUDY    72  66  83 S8        30.05R
$$

WIZ011>013-019>022-031-037>040-048>050-260700-
NORTHEAST WISCONSIN

CITY           SKY/WX    TMP DP  RH WIND       PRES   REMARKS
ANTIGO         CLOUDY    64  63  95 S8        30.06S
SHAWANO        CLOUDY    69  63  81 S3        30.06R
6HR MIN TEMP:  67; 6HR MAX TEMP:  73; 6HR PCP:  0.03;

OCONTO         CLOUDY    68  62  78 SW6       30.05S
STURGEON BAY     N/A     68  60  75 S10       30.08R
6HR MIN TEMP:  65; 6HR MAX TEMP:  69;

GREEN BAY      CLOUDY    68  61  78 S9        30.07R
6HR MIN TEMP:  68; 6HR MAX TEMP:  72; 6HR PCP:  0.01;

MANITOWOC      NOT AVBL
APPLETON       CLOUDY    68  59  73 S10       30.07R
CLINTONVILLE   CLOUDY   N/A N/A N/A S7        30.06R
OSHKOSH        MOCLDY    66  62  87 S7        30.08R
6HR MIN TEMP:  65; 6HR MAX TEMP:  76;

$$

WIZ032>034-041-042-053>061-260700-
SOUTHWEST WISCONSIN

CITY           SKY/WX    TMP DP  RH WIND       PRES   REMARKS
LA CROSSE      CLOUDY    77  69  76 VRB3      30.02R
6HR MIN TEMP:  77; 6HR MAX TEMP:  81;

SPARTA         CLOUDY    72  66  83 SW3       30.05R
VIROQUA        CLOUDY    71  69  93 S9        30.07R
BOSCOBEL       MOCLDY    73  67  81 SW3       30.07R
6HR MIN TEMP:  73; 6HR MAX TEMP:  80;

PRAIRIE DU CHI CLOUDY    74  65  74 SE3       30.06R
PLATTEVILLE    CLOUDY    69  69  99 S7        30.09R
$$

WIZ056-057-062-063-064-067-068-260700-
SOUTH CENTRAL WISCONSIN

CITY           SKY/WX    TMP DP  RH WIND       PRES   REMARKS
REEDSBURG      CLOUDY    70  67  92 S7        30.07R
BARABOO/DELLS  CLOUDY    70  63  78 S5        30.07S
LONE ROCK      NOT AVBL
MINERAL POINT  CLOUDY    70  68  94 S8        30.09S
MADISON        CLOUDY    71  62  73 S7        30.09R
6HR MIN TEMP:  70; 6HR MAX TEMP:  77;

MIDDLETON        N/A     70  62  76 SW5       30.09R
WATERTOWN      CLOUDY    65  64  99 CALM      30.09R
MONROE         CLOUDY    68  61  77 S10       30.10R
JANESVILLE     PTCLDY    70  59  68 S6        30.09R
$$

WIZ051-052-058>065-066-070>072-260700-
SOUTHEAST WISCONSIN

CITY           SKY/WX    TMP DP  RH WIND       PRES   REMARKS
MILWAUKEE      CLOUDY    70  62  76 S6        30.11S
6HR MIN TEMP:  69; 6HR MAX TEMP:  74;

WAUKESHA       CLOUDY    64  55  72 S6        30.11S
MILWAUKEE/TIMM MOCLDY    68  55  64 S6        30.10F
RACINE         PTCLDY    70  61  73 S7        30.12S
6HR MIN TEMP:  70; 6HR MAX TEMP:  74;

KENOSHA        PTCLDY    67  59  75 S7        30.12R
6HR MIN TEMP:  67; 6HR MAX TEMP:  75;

FOND DU LAC    CLOUDY    66  60  81 S7        30.10R
6HR MIN TEMP:  65; 6HR MAX TEMP:  76;

SHEBOYGAN      PTCLDY    65  62  90 S6        30.11R
6HR MIN TEMP:  65; 6HR MAX TEMP:  70;

WEST BEND      PTCLDY    64  57  77 CALM      30.12R
JUNEAU         PTCLDY    66  61  84 CALM      30.12R
$$

LSZ147-162-260700-
LAKE SUPERIOR

STATION/POSITION TIME  TEMP    WIND        PRES    WAVE
                       AIR SEA DIR/SP/G            HT/PER
                 (UTC) (F)     (DEG/KT/KT) (MB)    (FT/S)
W MID LAKE BUOY  0450   58 52  220/  8/  8 1012.4F   1
DEVILS ISLAND    0500   67     210/  8/ 10 1012.6F
SAXON HARBOR     0530   75     200/  8/ 14 1013.5R
$$

LMZ867-665-643>646-260700-
LAKE MICHIGAN

STATION/POSITION TIME  TEMP    WIND        PRES    WAVE
                       AIR SEA DIR/SP/G            HT/PER
                 (UTC) (F)     (DEG/KT/KT) (MB)    (FT/S)
CHAMBERS ISLAND  0540   69     170/  5/ 10 1016.9F
S GREEN BAY BUOY 0500   71 72  180/ 21/ 23 1017.1
N MID LAKE BUOY  0450   69 66  190/ 17/ 19 1017.8F   3/ 5
NORTHPORT PIER   0540   66     170/  6/ 12 1017.9S
KEWAUNEE LAKESHO 0530   70     200/ 12/ 19 1017.5F
SHEBOYGAN LAKESH 0500   69     170/ 15/ 16 1018.6F
PORT WASHINGTON  0530   70     180/  8/ 11 1020.0S
ATWATER BUOY     0409   70 68  160/ 10/ 12 1019.8R
MILWAUKEE LAKESH 0530   71     170/  9/ 10   N/A
S MID LAKE BUOY  0450   73 71  180/  8/ 12 1020.7R   1
KENOSHA   LAKESH 0500   70     170/  9/ 10 1019.0
$$

TC  - TEMPERATURE IN CELSIUS
VSB - VISIBILITY IN STATUTE MILES
WCI - WIND CHILL INDEX
HX  - HEAT INDEX




USA.gov is the U.S. government's official web portal to all federal, state and local government web resources and services.